Weather History for KUIL - July, 2012

Change the Weather History Date:

Sunday, July 22, 2012

  Actual Average Record
Temperature  
Mean Temperature 57 °F 60 °F  
Max Temperature 62 °F 68 °F 92 °F (2004)
Min Temperature 51 °F 51 °F 42 °F (1975)
Degree Days  
Heating Degree Days 8 6  
Month to date heating degree days 146  
Since 1 June heating degree days 440  
Since 1 July heating degree days 146  
Cooling Degree Days 0 0  
Month to date cooling degree days 0  
Year to date cooling degree days 4  
Since 1 June cooling degree days 3  
Growing Degree Days 7 (Base 50)    
Moisture  
Dew Point 52 °F    
Average Humidity 86    
Maximum Humidity 94    
Minimum Humidity 67    
Precipitation  
Precipitation 0.22 in 0.05 in 0.42 in (2007)
Month to date precipitation 1.47  
Year to date precipitation 53.72  
Sea Level Pressure  
Sea Level Pressure 30.10 in    
Wind  
Wind Speed 5 mph (SW)    
Max Wind Speed 14 mph    
Max Gust Speed 32 mph    
Visibility 8 miles    
Events Rain    
T = Trace of Precipitation, MM = Missing Value Source: NWS Daily Summary

Daily Weather History Graph

Daily Weather History Graph

Search for Another Location

Airport or City:

Trip Planner

Search our weather history database for the weather conditions in past years. The results will help you decide how hot, cold, wet, or windy it might be!

Date:

Astronomy

Jul. 22, 2012 Rise Set
Actual Time 5:43 AM PDT 9:05 PM PDT
Civil Twilight 5:05 AM PDT 9:43 PM PDT
Nautical Twilight 4:14 AM PDT 10:33 PM PDT
Astronomical Twilight 3:09 AM PDT 11:37 PM PDT
Moon 9:57 AM PDT (7/22) 10:26 PM PDT (7/22)
Length of Visible Light 16h 38m
Length of Day
15h 22m
Waxing Crescent, 14% of the Moon is Illuminated
Jul 22
Waxing Crescent
Jul 26
First Quarter
Aug 1
Full
Aug 9
Last Quarter
Aug 17
New

Hourly Weather History & Observations

Time (PDT) Temp. Dew Point Humidity Pressure Visibility Wind Dir Wind Speed Gust Speed Precip Events Conditions
12:13 AM 55.4 °F 53.6 °F 94% 30.10 in 10.0 mi South 3.5 mph - N/A   Overcast
12:53 AM 55.9 °F 53.1 °F 90% 30.09 in 10.0 mi South 3.5 mph - 0.00 in Rain Light Rain
1:53 AM 55.9 °F 53.1 °F 90% 30.08 in 10.0 mi Calm Calm - 0.00 in   Overcast
2:53 AM 55.9 °F 52.0 °F 87% 30.07 in 10.0 mi Calm Calm - N/A   Overcast
3:02 AM 55.4 °F 51.8 °F 88% 30.07 in 10.0 mi South 3.5 mph - N/A   Overcast
3:11 AM 55.4 °F 51.8 °F 88% 30.07 in 3.0 mi Calm Calm - 0.00 in Rain Light Rain
3:20 AM 55.4 °F 51.8 °F 88% 30.07 in 2.0 mi SW 3.5 mph - 0.00 in Rain Light Rain
3:24 AM 55.4 °F 51.8 °F 88% 30.07 in 1.5 mi WSW 4.6 mph - 0.02 in Rain Rain
3:32 AM 53.6 °F 51.8 °F 94% 30.07 in 1.5 mi WSW 5.8 mph - 0.06 in Rain Heavy Rain
3:53 AM 54.0 °F 52.0 °F 93% 30.08 in 1.8 mi SSW 3.5 mph - 0.10 in Rain Light Rain
4:00 AM 53.6 °F 51.8 °F 94% 30.07 in 3.0 mi Calm Calm - 0.00 in Rain Light Rain
4:07 AM 53.6 °F 51.8 °F 94% 30.07 in 7.0 mi Calm Calm - 0.01 in Rain Light Rain
4:16 AM 53.6 °F 51.8 °F 94% 30.07 in 10.0 mi Calm Calm - 0.01 in   Overcast
4:41 AM 53.6 °F 51.8 °F 94% 30.07 in 4.0 mi SSE 3.5 mph - 0.01 in Rain Light Rain
4:48 AM 53.6 °F 51.8 °F 94% 30.07 in 5.0 mi Calm Calm - 0.01 in Rain Light Rain
4:53 AM 54.0 °F 52.0 °F 93% 30.07 in 5.0 mi South 3.5 mph - 0.01 in Rain Light Rain
5:03 AM 53.6 °F 51.8 °F 94% 30.07 in 2.0 mi Calm Calm - 0.02 in Rain Light Rain
5:08 AM 53.6 °F 51.8 °F 94% 30.07 in 3.0 mi Calm Calm - 0.02 in Rain Light Rain
5:11 AM 53.6 °F 51.8 °F 94% 30.07 in 2.5 mi WSW 4.6 mph - 0.03 in Rain Light Rain
5:17 AM 53.6 °F 51.8 °F 94% 30.07 in 3.0 mi West 5.8 mph - 0.03 in Rain Light Rain
5:53 AM 54.0 °F 52.0 °F 93% 30.08 in 2.5 mi Calm Calm - 0.04 in Rain Light Rain
6:21 AM 53.6 °F 51.8 °F 94% 30.08 in 3.0 mi South 3.5 mph - 0.01 in Rain Light Rain
6:53 AM 54.0 °F 52.0 °F 93% 30.08 in 10.0 mi Calm Calm - 0.02 in   Mostly Cloudy
7:53 AM 55.0 °F 52.0 °F 89% 30.07 in 10.0 mi Calm Calm - N/A   Overcast
8:25 AM 55.4 °F 51.8 °F 88% 30.08 in 10.0 mi SSW 3.5 mph - N/A   Overcast
8:46 AM 55.4 °F 53.6 °F 94% 30.08 in 10.0 mi Calm Calm - N/A   Overcast
8:53 AM 55.9 °F 53.1 °F 90% 30.08 in 10.0 mi South 3.5 mph - N/A   Overcast
9:53 AM 57.0 °F 53.1 °F 87% 30.08 in 10.0 mi SSW 5.8 mph - 0.00 in   Overcast
10:01 AM 57.2 °F 53.6 °F 88% 30.08 in 9.0 mi Variable 3.5 mph - 0.00 in Rain Light Rain
10:11 AM 55.4 °F 53.6 °F 94% 30.08 in 2.0 mi SSW 6.9 mph - 0.01 in Rain Heavy Rain
10:21 AM 55.4 °F 51.8 °F 88% 30.08 in 3.0 mi WSW 5.8 mph - 0.03 in Rain Light Rain
10:25 AM 55.4 °F 51.8 °F 88% 30.09 in 10.0 mi WSW 3.5 mph - 0.03 in Rain Light Rain
10:53 AM 57.9 °F 53.1 °F 84% 30.09 in 10.0 mi SW 6.9 mph - 0.03 in   Overcast
11:04 AM 57.2 °F 53.6 °F 88% 30.09 in 10.0 mi SW 6.9 mph - N/A   Overcast
11:38 AM 59.0 °F 53.6 °F 82% 30.09 in 10.0 mi West 10.4 mph - N/A   Overcast
11:51 AM 60.8 °F 53.6 °F 77% 30.09 in 10.0 mi SSW 8.1 mph - N/A   Overcast
11:53 AM 60.1 °F 53.1 °F 78% 30.09 in 10.0 mi SW 8.1 mph - N/A   Overcast
12:53 PM 59.0 °F 51.1 °F 75% 30.10 in 10.0 mi WSW 10.4 mph - N/A   Overcast
1:53 PM 59.0 °F 50.0 °F 72% 30.12 in 10.0 mi West 9.2 mph - N/A   Mostly Cloudy
2:45 PM 60.8 °F 51.8 °F 72% 30.12 in 10.0 mi West 10.4 mph - N/A   Overcast
2:53 PM 60.1 °F 50.0 °F 69% 30.13 in 10.0 mi WSW 11.5 mph - N/A   Overcast
3:53 PM 60.1 °F 48.9 °F 67% 30.13 in 10.0 mi West 10.4 mph - N/A   Overcast
4:53 PM 57.9 °F 50.0 °F 75% 30.14 in 10.0 mi WSW 11.5 mph - N/A   Overcast
5:37 PM 57.2 °F 51.8 °F 82% 30.14 in 10.0 mi West 5.8 mph - 0.00 in   Overcast
5:53 PM 57.0 °F 50.0 °F 77% 30.14 in 10.0 mi West 5.8 mph - 0.00 in Rain Light Rain
6:34 PM 59.0 °F 50.0 °F 72% 30.14 in 10.0 mi West 6.9 mph - 0.00 in   Overcast
6:46 PM 57.2 °F 48.2 °F 72% 30.14 in 10.0 mi West 8.1 mph - 0.00 in   Overcast
6:53 PM 57.9 °F 50.0 °F 75% 30.14 in 10.0 mi West 5.8 mph - 0.00 in   Overcast
7:53 PM 55.9 °F 48.9 °F 77% 30.14 in 10.0 mi West 6.9 mph - N/A   Partly Cloudy
8:53 PM 55.0 °F 48.9 °F 80% 30.16 in 10.0 mi WNW 3.5 mph - N/A   Mostly Cloudy
9:53 PM 52.0 °F 48.9 °F 89% 30.17 in 10.0 mi West 3.5 mph - N/A   Mostly Cloudy
10:53 PM 54.0 °F 50.0 °F 86% 30.17 in 10.0 mi Calm Calm - N/A   Overcast
11:46 PM 53.6 °F 50.0 °F 88% 30.17 in 10.0 mi SSE 3.5 mph - N/A   Overcast
11:53 PM 53.1 °F 51.1 °F 93% 30.17 in 10.0 mi SSE 3.5 mph - N/A   Overcast